OAS9630 SKBO-SKCG

Flight info

Callsign OAS9630
Flight time 0h 55m
Altitude 30000
Route OSUSU4R GIKPU UQ120 YACAR/N0379F230 A301 EJA/N0421F300 UM782 XOGEN UQ115 UGREB UGREB3B
Aircraft A21N/M-SDE2E3FGHIRWXY/LB1

Departure

Time 2026-04-26 21:06
Airport El Dorado International Airport (SKBO)

Arrival

Time 2026-04-26 22:01
Airport Rafael Nuñez International Airport (SKCG)
Time Latitude Longitude Altitude Speed Heading
2026-04-26 20:39 4.69511 -74.13443 8376 ft 0 kts 127°
2026-04-26 20:52 4.69520 -74.13456 8375 ft 2 kts 126°
2026-04-26 20:52 4.69530 -74.13469 8374 ft 2 kts 126°
2026-04-26 20:52 4.69537 -74.13484 8375 ft 2 kts 35°
2026-04-26 20:53 4.69529 -74.13488 8374 ft 1 kts 36°
2026-04-26 20:53 4.69526 -74.13491 8374 ft 0 kts 39°
2026-04-26 20:57 4.69541 -74.13478 8374 ft 6 kts 39°
2026-04-26 20:57 4.69576 -74.13466 8375 ft 4 kts 349°
2026-04-26 20:57 4.69592 -74.13476 8372 ft 2 kts 322°
2026-04-26 20:57 4.69599 -74.13482 8373 ft 6 kts 317°
2026-04-26 20:58 4.69634 -74.13521 8376 ft 9 kts 311°
2026-04-26 20:58 4.69676 -74.13573 8373 ft 12 kts 308°
2026-04-26 20:58 4.69718 -74.13629 8375 ft 11 kts 313°
2026-04-26 20:58 4.69777 -74.13637 8372 ft 9 kts 27°
2026-04-26 20:59 4.69834 -74.13587 8376 ft 13 kts 70°
2026-04-26 20:59 4.69813 -74.13518 8373 ft 9 kts 128°
2026-04-26 20:59 4.69780 -74.13473 8374 ft 7 kts 128°
2026-04-26 20:59 4.69745 -74.13428 8372 ft 13 kts 126°
2026-04-26 21:00 4.69694 -74.13359 8373 ft 11 kts 126°
2026-04-26 21:00 4.69651 -74.13302 8375 ft 10 kts 129°
2026-04-26 21:00 4.69596 -74.13233 8373 ft 13 kts 129°
2026-04-26 21:00 4.69534 -74.13151 8372 ft 15 kts 127°
2026-04-26 21:01 4.69476 -74.13076 8373 ft 12 kts 127°
2026-04-26 21:01 4.69425 -74.13005 8374 ft 15 kts 124°
2026-04-26 21:01 4.69364 -74.12925 8371 ft 17 kts 127°
2026-04-26 21:01 4.69297 -74.12836 8371 ft 15 kts 127°
2026-04-26 21:02 4.69241 -74.12764 8371 ft 12 kts 127°
2026-04-26 21:02 4.69204 -74.12702 8375 ft 11 kts 103°
2026-04-26 21:02 4.69213 -74.12635 8375 ft 8 kts 75°
2026-04-26 21:02 4.69221 -74.12601 8371 ft 0 kts 75°
2026-04-26 21:03 4.69222 -74.12599 8371 ft 1 kts 75°
2026-04-26 21:03 4.69226 -74.12583 8372 ft 6 kts 75°
2026-04-26 21:04 4.69245 -74.12529 8373 ft 16 kts 53°
2026-04-26 21:04 4.69311 -74.12532 8370 ft 6 kts 305°
2026-04-26 21:04 4.69321 -74.12544 8373 ft 0 kts 310°
2026-04-26 21:05 4.69333 -74.12559 8371 ft 19 kts 310°
2026-04-26 21:05 4.69532 -74.12821 8372 ft 76 kts 306°
2026-04-26 21:05 4.69971 -74.13407 8370 ft 134 kts 307°
2026-04-26 21:05 4.70649 -74.14299 8371 ft 183 kts 309°
2026-04-26 21:06 4.71492 -74.15383 8547 ft 204 kts 306°
2026-04-26 21:06 4.72409 -74.16564 8856 ft 227 kts 304°
2026-04-26 21:06 4.73419 -74.17736 9722 ft 215 kts 320°
2026-04-26 21:06 4.74742 -74.18388 10305 ft 217 kts 353°
2026-04-26 21:07 4.76257 -74.18166 10479 ft 229 kts 21°
2026-04-26 21:07 4.77766 -74.17492 10674 ft 245 kts 25°
2026-04-26 21:07 4.79356 -74.16706 10796 ft 266 kts 26°
2026-04-26 21:07 4.81075 -74.15862 11059 ft 280 kts 25°
2026-04-26 21:08 4.82838 -74.15012 11573 ft 284 kts 25°
2026-04-26 21:08 4.84630 -74.14158 12149 ft 286 kts 25°
2026-04-26 21:08 4.86441 -74.13299 12732 ft 289 kts 25°
2026-04-26 21:08 4.88133 -74.12209 13270 ft 294 kts 40°
2026-04-26 21:09 4.89682 -74.10779 13537 ft 310 kts 44°
2026-04-26 21:09 4.91251 -74.09208 13754 ft 326 kts 45°
2026-04-26 21:09 4.92888 -74.07559 13723 ft 341 kts 45°
2026-04-26 21:09 4.94603 -74.05840 13945 ft 355 kts 45°
2026-04-26 21:10 4.96388 -74.04059 14116 ft 368 kts 45°
2026-04-26 21:10 4.98224 -74.02233 14381 ft 376 kts 44°
2026-04-26 21:10 5.00108 -74.00383 14771 ft 380 kts 42°
2026-04-26 21:10 5.02249 -73.98832 15175 ft 383 kts 26°
2026-04-26 21:11 5.04750 -73.97904 15600 ft 385 kts 15°
2026-04-26 21:11 5.07337 -73.97234 16054 ft 387 kts 13°
2026-04-26 21:11 5.09963 -73.96598 16480 ft 389 kts 13°
2026-04-26 21:11 5.12604 -73.95957 16685 ft 391 kts 13°
2026-04-26 21:12 5.15264 -73.95307 16728 ft 399 kts 13°
2026-04-26 21:12 5.18003 -73.94631 16730 ft 412 kts 13°
2026-04-26 21:12 5.20822 -73.93933 16728 ft 421 kts 13°
2026-04-26 21:12 5.23678 -73.93224 16747 ft 425 kts 13°
2026-04-26 21:13 5.26559 -73.92508 16754 ft 427 kts 13°
2026-04-26 21:13 5.29425 -73.91794 16917 ft 429 kts 13°
2026-04-26 21:13 5.32325 -73.90938 16147 ft 447 kts 21°
2026-04-26 21:13 5.35064 -73.89423 15682 ft 441 kts 34°
2026-04-26 21:14 5.37365 -73.87390 14823 ft 439 kts 45°
2026-04-26 21:14 5.39505 -73.85250 14193 ft 431 kts 45°
2026-04-26 21:14 5.41633 -73.83166 13578 ft 423 kts 41°
2026-04-26 21:14 5.44054 -73.81544 12959 ft 418 kts 25°
2026-04-26 21:15 5.46816 -73.80654 12664 ft 419 kts
2026-04-26 21:15 5.49692 -73.80579 12837 ft 420 kts 351°
2026-04-26 21:15 5.52475 -73.81419 13097 ft 419 kts 333°
2026-04-26 21:15 5.54844 -73.83106 13335 ft 419 kts 314°
2026-04-26 21:16 5.56475 -73.85314 13524 ft 419 kts 296°
2026-04-26 21:16 5.57408 -73.88162 13724 ft 420 kts 278°
2026-04-26 21:16 5.57377 -73.91081 13917 ft 421 kts 259°
2026-04-26 21:16 5.56470 -73.93871 14078 ft 422 kts 248°
2026-04-26 21:17 5.55593 -73.96678 14249 ft 424 kts 262°
2026-04-26 21:17 5.55628 -73.99619 14424 ft 425 kts 280°
2026-04-26 21:17 5.56587 -74.02425 14579 ft 427 kts 298°
2026-04-26 21:17 5.58372 -74.04792 14755 ft 428 kts 316°
2026-04-26 21:18 5.60810 -74.06496 14897 ft 430 kts 334°
2026-04-26 21:18 5.63668 -74.07373 15045 ft 432 kts 352°
2026-04-26 21:18 5.66677 -74.07399 15200 ft 434 kts
2026-04-26 21:18 5.69584 -74.06613 15342 ft 436 kts 23°
2026-04-26 21:19 5.72168 -74.05041 15458 ft 437 kts 39°
2026-04-26 21:19 5.74425 -74.02981 15604 ft 438 kts 44°
2026-04-26 21:19 5.76602 -74.00841 15731 ft 439 kts 43°
2026-04-26 21:19 5.78969 -73.98889 15841 ft 441 kts 33°
2026-04-26 21:20 5.81682 -73.97461 15938 ft 441 kts 19°
2026-04-26 21:20 5.84669 -73.96803 16078 ft 440 kts
2026-04-26 21:20 5.87725 -73.96958 16177 ft 440 kts 352°
2026-04-26 21:20 5.90728 -73.97531 16296 ft 441 kts 346°
2026-04-26 21:21 5.93696 -73.98319 16403 ft 442 kts 343°
2026-04-26 21:21 5.96646 -73.99201 16497 ft 442 kts 342°
2026-04-26 21:21 5.99585 -74.00101 16592 ft 443 kts 343°
2026-04-26 21:21 6.02544 -74.00993 16660 ft 444 kts 343°
2026-04-26 21:22 6.05510 -74.01861 16738 ft 445 kts 343°
2026-04-26 21:22 6.08491 -74.02710 16823 ft 445 kts 344°
2026-04-26 21:22 6.11477 -74.03545 16895 ft 446 kts 344°
2026-04-26 21:23 6.17470 -74.05198 17009 ft 447 kts 344°
2026-04-26 21:23 6.20470 -74.06022 17076 ft 447 kts 344°
2026-04-26 21:23 6.23468 -74.06846 17131 ft 448 kts 344°
2026-04-26 21:23 6.26466 -74.07672 17161 ft 448 kts 344°
2026-04-26 21:24 6.29443 -74.08493 17200 ft 449 kts 344°
2026-04-26 21:24 6.32453 -74.09323 17248 ft 449 kts 344°
2026-04-26 21:24 6.35511 -74.10167 17291 ft 449 kts 344°
2026-04-26 21:24 6.38492 -74.10990 17415 ft 455 kts 344°
2026-04-26 21:25 6.41550 -74.11835 17913 ft 457 kts 344°
2026-04-26 21:25 6.44620 -74.12683 18341 ft 459 kts 344°
2026-04-26 21:25 6.47714 -74.13538 18679 ft 462 kts 344°
2026-04-26 21:25 6.50822 -74.14396 19014 ft 465 kts 344°
2026-04-26 21:26 6.53945 -74.15259 19370 ft 466 kts 345°
2026-04-26 21:26 6.57072 -74.16123 19759 ft 466 kts 344°
2026-04-26 21:26 6.60192 -74.16986 20142 ft 464 kts 345°
2026-04-26 21:26 6.63300 -74.17845 20549 ft 462 kts 345°
2026-04-26 21:27 6.66403 -74.18703 20955 ft 462 kts 345°
2026-04-26 21:27 6.69502 -74.19560 21321 ft 462 kts 345°
2026-04-26 21:27 6.72605 -74.20418 21696 ft 463 kts 345°
2026-04-26 21:27 6.75714 -74.21278 22057 ft 463 kts 345°
2026-04-26 21:28 6.78823 -74.22138 22446 ft 463 kts 345°
2026-04-26 21:28 6.81929 -74.22997 22791 ft 464 kts 345°
2026-04-26 21:28 6.85045 -74.23859 23104 ft 465 kts 345°
2026-04-26 21:28 6.88168 -74.24723 23413 ft 466 kts 345°
2026-04-26 21:29 6.91298 -74.25590 23678 ft 466 kts 345°
2026-04-26 21:29 6.94420 -74.26454 23937 ft 466 kts 345°
2026-04-26 21:29 6.97547 -74.27320 24194 ft 465 kts 345°
2026-04-26 21:29 7.00668 -74.28184 24463 ft 465 kts 345°
2026-04-26 21:30 7.03784 -74.29047 24739 ft 465 kts 345°
2026-04-26 21:30 7.06901 -74.29910 25017 ft 465 kts 345°
2026-04-26 21:30 7.10025 -74.30776 25281 ft 465 kts 345°
2026-04-26 21:30 7.12090 -74.31348 25459 ft 465 kts 345°
2026-04-26 21:31 7.16264 -74.32504 25827 ft 466 kts 345°
2026-04-26 21:31 7.19390 -74.33370 26094 ft 467 kts 345°
2026-04-26 21:31 7.22517 -74.34237 26369 ft 467 kts 345°
2026-04-26 21:31 7.25661 -74.35109 26657 ft 467 kts 345°
2026-04-26 21:32 7.28802 -74.35980 26918 ft 469 kts 345°
2026-04-26 21:32 7.31961 -74.36855 27088 ft 473 kts 345°
2026-04-26 21:32 7.35139 -74.37737 27291 ft 475 kts 345°
2026-04-26 21:32 7.38324 -74.38620 27536 ft 476 kts 345°
2026-04-26 21:33 7.41516 -74.39506 27759 ft 477 kts 345°
2026-04-26 21:33 7.44730 -74.40398 27964 ft 479 kts 345°
2026-04-26 21:33 7.47942 -74.41289 28162 ft 480 kts 345°
2026-04-26 21:33 7.51169 -74.42184 28352 ft 482 kts 345°
2026-04-26 21:34 7.54407 -74.43083 28561 ft 482 kts 345°
2026-04-26 21:34 7.57634 -74.43978 28820 ft 482 kts 345°
2026-04-26 21:34 7.60867 -74.44876 29057 ft 481 kts 345°
2026-04-26 21:34 7.64049 -74.45760 29285 ft 481 kts 345°
2026-04-26 21:35 7.67274 -74.46656 29488 ft 481 kts 345°
2026-04-26 21:35 7.70544 -74.47564 29707 ft 481 kts 345°
2026-04-26 21:35 7.73726 -74.48449 29875 ft 482 kts 345°
2026-04-26 21:35 7.76963 -74.49348 29900 ft 486 kts 345°
2026-04-26 21:36 7.82418 -74.51029 29879 ft 493 kts 341°
2026-04-26 21:36 7.90041 -74.53648 29879 ft 502 kts 341°
2026-04-26 21:37 7.96701 -74.55933 29880 ft 507 kts 341°
2026-04-26 21:37 8.03382 -74.58218 29873 ft 507 kts 341°
2026-04-26 21:38 8.10059 -74.60504 29863 ft 507 kts 341°
2026-04-26 21:38 8.16737 -74.62791 29863 ft 507 kts 341°
2026-04-26 21:39 8.23409 -74.65074 29842 ft 507 kts 341°
2026-04-26 21:39 8.30090 -74.67362 29842 ft 507 kts 341°
2026-04-26 21:40 8.35634 -74.69261 29838 ft 506 kts 341°
2026-04-26 21:40 8.42312 -74.71549 29841 ft 506 kts 341°
2026-04-26 21:41 8.48990 -74.73839 29850 ft 507 kts 341°
2026-04-26 21:41 8.55668 -74.76129 29846 ft 507 kts 341°
2026-04-26 21:42 8.62355 -74.78423 29837 ft 507 kts 341°
2026-04-26 21:42 8.69036 -74.80715 29841 ft 507 kts 341°
2026-04-26 21:43 8.75721 -74.83010 29848 ft 507 kts 341°
2026-04-26 21:43 8.82411 -74.85308 29847 ft 508 kts 341°
2026-04-26 21:44 8.89099 -74.87605 29839 ft 508 kts 341°
2026-04-26 21:44 8.95776 -74.89900 29216 ft 506 kts 341°
2026-04-26 21:45 8.99106 -74.91045 28670 ft 508 kts 341°
2026-04-26 21:45 9.02462 -74.92199 28025 ft 508 kts 341°
2026-04-26 21:45 9.05808 -74.93349 27424 ft 509 kts 341°
2026-04-26 21:45 9.09160 -74.94502 26817 ft 509 kts 341°
2026-04-26 21:46 9.12511 -74.95655 26194 ft 509 kts 341°
2026-04-26 21:46 9.15866 -74.96810 25583 ft 509 kts 341°
2026-04-26 21:46 9.19227 -74.97966 24946 ft 510 kts 341°
2026-04-26 21:46 9.22583 -74.99122 24329 ft 510 kts 341°
2026-04-26 21:47 9.25900 -75.00264 23544 ft 510 kts 340°
2026-04-26 21:47 9.29245 -75.01415 23404 ft 492 kts 340°
2026-04-26 21:47 9.32408 -75.02504 23088 ft 481 kts 340°
2026-04-26 21:47 9.35561 -75.03591 22078 ft 482 kts 340°
2026-04-26 21:48 9.38749 -75.04690 21166 ft 485 kts 340°
2026-04-26 21:48 9.41935 -75.05788 20421 ft 483 kts 341°
2026-04-26 21:48 9.45113 -75.06884 19644 ft 479 kts 340°
2026-04-26 21:48 9.48236 -75.07960 19265 ft 469 kts 340°
2026-04-26 21:49 9.51322 -75.09025 18761 ft 469 kts 340°
2026-04-26 21:49 9.54404 -75.10088 18145 ft 467 kts 340°
2026-04-26 21:49 9.57479 -75.11149 17269 ft 464 kts 340°
2026-04-26 21:49 9.60504 -75.12196 16862 ft 452 kts 340°
2026-04-26 21:50 9.63416 -75.13208 16615 ft 435 kts 340°
2026-04-26 21:50 9.66268 -75.14191 15873 ft 433 kts 341°
2026-04-26 21:50 9.69150 -75.15184 15236 ft 442 kts 341°
2026-04-26 21:50 9.72070 -75.16191 14709 ft 444 kts 340°
2026-04-26 21:51 9.74830 -75.17522 14087 ft 439 kts 329°
2026-04-26 21:51 9.77394 -75.19171 13375 ft 433 kts 326°
2026-04-26 21:51 9.79895 -75.20859 12596 ft 429 kts 326°
2026-04-26 21:51 9.82358 -75.22527 12053 ft 422 kts 326°
2026-04-26 21:52 9.84791 -75.24167 11694 ft 419 kts 326°
2026-04-26 21:52 9.87214 -75.25795 11132 ft 415 kts 326°
2026-04-26 21:52 9.89609 -75.27402 10466 ft 410 kts 326°
2026-04-26 21:52 9.91921 -75.28951 10083 ft 385 kts 327°
2026-04-26 21:53 9.94074 -75.30393 9835 ft 357 kts 327°
2026-04-26 21:53 9.96074 -75.31732 9531 ft 334 kts 327°
2026-04-26 21:53 9.97955 -75.32991 9194 ft 316 kts 327°
2026-04-26 21:53 9.99752 -75.34194 8923 ft 303 kts 327°
2026-04-26 21:54 10.01481 -75.35352 8647 ft 295 kts 327°
2026-04-26 21:54 10.03191 -75.36497 8201 ft 293 kts 327°
2026-04-26 21:54 10.04892 -75.37636 7736 ft 292 kts 327°
2026-04-26 21:54 10.06580 -75.38766 7318 ft 290 kts 327°
2026-04-26 21:55 10.08257 -75.39889 6905 ft 288 kts 327°
2026-04-26 21:55 10.09920 -75.41003 6519 ft 285 kts 327°
2026-04-26 21:55 10.11568 -75.42107 6128 ft 282 kts 327°
2026-04-26 21:55 10.13199 -75.43199 5742 ft 279 kts 327°
2026-04-26 21:56 10.14782 -75.44260 5385 ft 275 kts 327°
2026-04-26 21:56 10.16370 -75.45324 5031 ft 273 kts 327°
2026-04-26 21:56 10.17949 -75.46382 4683 ft 271 kts 327°
2026-04-26 21:56 10.19535 -75.47445 4322 ft 269 kts 327°
2026-04-26 21:57 10.21070 -75.48474 3987 ft 266 kts 327°
2026-04-26 21:57 10.22604 -75.49502 3647 ft 263 kts 327°
2026-04-26 21:57 10.24125 -75.50522 3310 ft 261 kts 327°
2026-04-26 21:57 10.25678 -75.51463 3042 ft 260 kts 338°
2026-04-26 21:58 10.27411 -75.51968 2789 ft 255 kts 353°
2026-04-26 21:58 10.29143 -75.51994 2122 ft 245 kts
2026-04-26 21:58 10.30801 -75.51849 1522 ft 232 kts
2026-04-26 21:58 10.32356 -75.51767 1175 ft 217 kts
2026-04-26 21:59 10.33825 -75.51715 1024 ft 198 kts
2026-04-26 21:59 10.35072 -75.51663 1040 ft 161 kts
2026-04-26 21:59 10.36113 -75.51619 1007 ft 143 kts
2026-04-26 21:59 10.37109 -75.51579 1006 ft 144 kts
2026-04-26 22:00 10.38109 -75.51539 959 ft 144 kts
2026-04-26 22:00 10.39114 -75.51498 805 ft 145 kts
2026-04-26 22:00 10.40125 -75.51457 649 ft 147 kts
2026-04-26 22:00 10.41151 -75.51411 350 ft 145 kts
2026-04-26 22:01 10.42148 -75.51363 207 ft 143 kts
2026-04-26 22:01 10.43124 -75.51330 53 ft 139 kts
2026-04-26 22:01 10.44044 -75.51297 12 ft 117 kts
2026-04-26 22:01 10.44556 -75.51274 15 ft 30 kts
2026-04-26 22:02 10.44613 -75.51271 15 ft 6 kts 339°
2026-04-26 22:02 10.44639 -75.51301 15 ft 11 kts 282°
2026-04-26 22:02 10.44634 -75.51401 15 ft 9 kts 269°
2026-04-26 22:02 10.44643 -75.51463 15 ft 8 kts 282°
2026-04-26 22:03 10.44647 -75.51513 15 ft 5 kts 271°
2026-04-26 22:03 10.44648 -75.51543 15 ft 2 kts 273°